Wind_Speed
4 2 4 6 8 10 12 11 9 12 14 16 13 11 11 9 8 10 8 8 9 6 7 9 12 15 13 11 12 12 13 12 11 10 9 8 8 8 8 8 9 9 7 11 17 18 17 21 20 19 19 18 18 19 19 19 19 18 16 16 17 16 15 14 14 15 15 14 14 13 12 11 10 9 9 9 10 9 9 8 7 7 6 6 6 7
5 5 6 8 12 14 15 13 9 8 11 16 13 10 10 8 9 13 11 9 11 6 5 9 11 13 13 11 11 10 12 13 13 12 11 10 9 8 8 9 9 7 7 10 13 16 18 19 20 21 20 20 20 21 21 20 20 19 17 18 18 17 18 16 15 16 16 15 14 13 12 10 9 8 7 7 8 6 5 5 4 6 5 3 3 3
6 7 9 12 13 14 15 14 11 10 10 12 10 7 8 7 8 11 13 12 11 5 6 10 9 10 12 12 12 11 10 12 14 14 13 12 10 9 10 9 9 8 8 9 9 13 17 18 20 22 22 22 22 23 23 22 21 20 19 20 19 17 19 17 16 17 16 13 12 11 9 7 8 8 6 6 5 4 4 3 4 6 4 1 2 3
6 7 10 14 14 14 15 14 12 10 10 7 6 5 6 9 9 8 11 14 12 7 9 12 8 7 10 9 11 12 10 11 14 16 15 14 12 11 12 11 11 11 10 10 9 11 15 17 20 22 23 24 24 24 24 23 22 21 20 20 21 19 18 18 17 17 15 12 11 9 8 6 7 6 5 5 4 3 3 3 2 2 2 2 3 2
6 8 11 14 15 15 14 12 11 8 6 6 6 5 5 10 11 9 10 12 12 9 11 12 6 4 8 9 9 10 11 12 14 17 15 14 13 12 12 12 13 12 11 12 11 10 13 16 19 22 23 24 25 25 25 25 25 24 23 22 21 20 19 18 17 15 13 12 10 9 8 6 6 4 4 4 4 4 4 4 4 4 2 1 1 3
8 10 12 15 15 15 12 10 10 7 5 6 8 8 5 6 5 11 15 11 7 6 9 13 7 3 6 8 9 8 10 12 12 15 16 14 13 12 12 12 13 13 12 12 12 12 14 16 19 22 22 23 25 26 26 27 26 25 24 23 21 21 21 18 16 14 14 14 12 11 9 7 6 5 3 3 2 1 2 3 3 2 1 1 3 3
8 11 13 15 14 14 13 9 9 10 6 5 6 7 5 6 5 9 18 11 5 6 9 14 9 2 4 5 10 9 9 10 10 14 17 15 14 13 13 13 13 14 12 12 13 12 14 16 18 20 22 24 25 27 27 27 26 26 25 24 22 22 21 19 16 16 16 16 14 13 10 7 6 5 5 4 2 5 6 6 5 3 2 3 5 3
8 13 14 15 14 12 10 8 9 11 8 5 6 7 5 7 8 10 16 9 6 6 8 13 9 4 4 7 9 9 8 8 7 11 15 16 16 16 14 15 16 16 14 13 13 13 14 18 20 21 23 26 27 28 29 28 27 26 25 25 24 22 21 19 18 18 18 18 15 12 9 8 7 6 6 5 1 5 6 5 3 3 3 5 6 4
10 13 15 16 13 8 6 9 10 10 9 6 8 6 5 9 10 8 11 6 3 4 5 10 9 5 4 5 5 8 8 8 9 11 14 15 17 17 16 17 17 17 17 16 15 14 15 19 23 24 25 26 29 30 30 29 29 27 26 26 25 23 21 21 20 19 18 17 14 11 10 8 7 7 7 5 2 2 5 4 2 3 4 5 5 4
10 12 13 14 11 7 7 9 10 8 7 6 9 7 6 8 7 2 6 3 2 2 3 7 8 5 2 4 6 7 8 11 11 10 11 13 16 16 16 17 17 16 16 16 16 16 18 22 26 27 25 27 30 31 31 30 29 28 27 27 25 25 25 23 22 20 17 15 14 12 10 9 9 8 7 6 4 3 3 3 3 3 4 5 4 4
10 11 12 10 8 9 10 12 11 8 7 6 6 6 8 6 3 1 3 4 4 0 5 6 5 5 3 5 8 9 13 16 13 10 10 12 16 16 15 16 16 15 15 15 15 17 22 26 29 28 26 27 30 30 31 30 30 30 29 28 28 27 27 24 21 20 17 15 15 12 11 10 10 8 6 6 6 6 5 5 4 4 4 5 4 5
12 10 9 7 7 11 12 12 10 8 7 7 5 4 5 4 1 0 2 4 3 3 6 5 5 4 4 5 10 13 18 19 15 14 15 15 16 16 14 15 16 15 15 15 14 15 18 21 26 27 26 27 29 29 31 31 32 31 30 30 29 28 27 24 22 21 18 16 14 13 12 11 10 9 7 6 6 6 5 5 5 4 4 5 5 5
11 9 7 7 8 12 12 8 6 5 5 6 5 4 4 2 2 1 3 3 1 4 5 4 5 5 4 7 15 19 18 18 19 19 18 18 16 15 14 13 14 15 16 16 15 15 15 16 20 25 26 26 28 30 31 32 32 32 31 31 31 29 27 25 23 21 18 17 15 14 14 11 10 9 8 7 7 6 7 7 6 5 5 4 4 4
7 8 9 9 7 7 8 5 4 4 5 5 5 4 5 3 2 1 1 1 3 4 5 6 6 5 5 5 15 22 20 18 19 18 16 17 17 16 15 13 14 16 17 15 14 15 14 15 19 25 27 26 28 31 32 32 32 32 32 32 31 30 28 26 24 22 19 18 17 15 14 13 11 9 8 8 7 7 8 8 7 6 6 5 5 4
7 7 8 9 5 5 6 6 6 6 6 6 6 5 3 4 3 3 3 3 4 5 5 7 6 4 5 6 8 17 19 15 13 13 15 17 17 15 13 12 14 16 17 14 14 15 15 18 22 26 27 27 29 32 32 32 33 33 32 33 32 31 30 27 24 23 21 19 19 17 15 14 12 10 9 8 8 8 8 7 7 6 6 5 5 5
7 6 9 10 7 11 10 9 8 8 7 6 6 5 4 4 4 3 5 6 5 4 4 4 4 4 6 5 2 10 13 14 14 12 13 15 14 12 12 12 13 14 15 14 13 14 16 19 24 26 27 29 31 32 32 33 34 34 33 33 33 32 31 29 26 26 24 21 20 19 17 15 12 11 10 9 9 10 7 7 8 7 6 5 5 5
5 5 12 14 8 13 15 12 11 8 5 3 5 6 5 5 4 3 4 6 4 4 4 3 3 2 1 3 2 11 14 15 14 10 12 15 15 14 13 13 13 13 15 15 14 14 16 19 23 27 29 30 32 32 33 34 36 36 36 34 33 32 31 29 28 27 25 23 23 21 18 15 14 14 12 9 9 9 8 8 8 7 6 6 5 4
5 4 8 16 10 10 14 12 13 10 6 3 4 6 5 6 4 2 1 3 3 3 3 3 5 4 2 4 3 10 15 15 13 10 12 15 16 15 13 13 13 12 15 16 15 14 16 19 23 27 30 32 34 35 35 36 37 37 37 36 34 33 32 31 29 28 26 25 25 22 19 17 16 15 12 9 9 10 10 10 9 8 8 8 7 4
6 4 4 15 13 10 12 11 11 9 10 8 5 7 7 4 4 3 2 3 4 2 2 3 5 4 4 4 3 10 14 15 11 9 13 15 15 13 11 12 14 12 13 15 13 13 14 17 23 27 29 32 35 36 36 37 37 36 36 36 36 34 33 32 30 29 27 26 25 23 20 19 17 15 12 10 10 12 12 10 10 10 10 10 8 6
5 4 3 12 15 11 9 9 6 5 9 9 5 5 7 5 4 5 4 4 4 3 1 4 5 3 4 4 8 11 11 12 9 8 11 13 14 13 11 12 14 12 13 14 13 13 14 17 24 29 31 33 35 35 35 35 35 35 36 36 36 34 33 32 31 30 27 26 25 23 21 20 19 16 14 12 12 13 12 11 12 13 12 12 10 9
6 4 3 7 13 10 6 7 7 5 6 6 5 5 5 4 4 4 3 3 4 4 2 1 3 3 6 2 7 9 8 10 10 8 8 9 11 12 12 12 12 11 12 14 13 13 14 17 24 29 30 32 34 33 33 34 34 35 35 36 36 34 34 33 31 30 29 26 24 23 22 21 20 17 15 15 14 14 13 13 14 15 15 13 11 11
5 4 4 5 9 7 5 9 11 8 6 6 5 5 5 5 5 3 3 3 3 4 4 4 2 3 6 2 7 7 7 8 9 8 7 8 10 10 11 11 10 10 10 11 12 13 13 15 20 26 28 29 31 31 32 33 34 34 35 35 35 35 35 34 33 31 30 27 25 23 23 22 20 18 16 15 16 15 15 15 16 16 16 15 13 13
7 4 5 6 8 8 8 13 15 12 10 7 5 4 4 3 3 4 4 4 3 3 4 4 4 3 7 1 7 7 8 8 8 8 6 5 9 11 11 11 10 11 11 10 12 12 11 14 20 25 27 28 30 32 33 33 33 34 35 36 35 34 35 35 34 32 30 29 26 24 24 22 20 18 16 16 17 16 16 16 17 16 16 17 16 16
8 4 4 4 5 8 9 11 16 16 11 7 5 6 6 5 5 4 4 4 4 4 4 3 3 3 7 2 6 7 8 8 7 8 9 6 7 9 12 12 9 11 12 11 12 12 11 14 18 20 22 26 28 30 31 32 33 34 35 35 35 35 36 35 34 33 31 29 27 25 23 22 21 18 16 17 17 17 17 17 19 19 18 18 18 18
6 4 4 3 3 6 7 6 9 13 10 5 4 6 8 10 10 5 1 3 3 5 6 5 3 4 6 2 6 7 7 8 6 6 8 7 7 8 9 11 10 10 11 11 12 11 10 11 13 15 19 24 27 30 31 32 32 33 35 36 34 34 36 35 34 34 32 30 28 26 24 23 21 19 17 18 19 19 19 18 18 16 12 12 15 15
6 5 5 5 5 7 7 5 5 7 7 5 5 7 8 8 9 6 2 3 3 6 6 6 4 5 6 2 6 7 7 7 6 6 7 8 8 7 8 9 10 10 11 12 12 11 11 11 11 14 19 24 26 28 31 31 32 33 34 35 35 35 36 35 33 34 33 31 29 27 25 24 23 20 19 20 20 20 21 20 17 12 6 7 10 10
4 5 5 7 7 7 7 7 8 8 6 6 9 11 10 8 6 5 5 4 4 5 5 6 10 8 6 6 7 7 8 7 6 7 7 7 8 7 8 9 9 10 11 13 13 12 12 11 11 14 18 23 26 28 31 31 32 33 33 34 35 35 35 34 34 35 33 31 29 28 27 25 22 21 20 21 21 20 19 18 15 12 8 7 8 8
3 5 7 9 8 8 6 5 7 11 8 7 10 13 13 12 9 5 6 7 7 7 5 8 14 13 10 11 10 9 9 8 7 8 8 8 8 7 7 8 9 10 10 11 11 12 14 13 12 12 16 21 25 27 29 30 31 32 33 35 35 36 36 34 34 35 34 32 30 29 28 25 21 21 22 22 22 20 19 17 15 14 12 10 10 10
3 4 8 10 9 10 9 6 5 8 8 8 8 12 15 16 15 10 7 6 8 8 6 9 15 16 13 12 11 10 10 10 9 9 8 8 7 7 8 8 9 9 10 11 11 12 14 14 13 12 14 20 24 25 26 28 29 30 32 33 32 33 36 35 36 37 35 32 31 29 27 24 22 23 23 23 22 20 19 18 16 15 15 15 14 13
2 2 5 6 6 7 8 7 6 5 7 10 9 9 10 13 14 12 10 8 7 8 8 9 13 13 11 12 12 11 9 10 9 8 8 8 8 8 8 8 8 8 9 10 10 11 13 15 15 15 15 18 23 26 26 26 28 30 31 32 30 31 34 37 39 39 36 32 30 28 27 25 25 26 25 25 23 21 20 18 17 15 15 15 14 13
2 3 3 3 3 2 3 4 8 10 8 7 7 8 6 7 8 8 8 8 8 8 7 10 11 9 7 10 11 8 8 9 9 8 9 8 7 8 7 6 5 5 6 8 9 9 11 13 15 15 15 18 24 26 27 28 29 27 24 24 25 27 34 40 40 37 36 32 26 23 25 27 27 26 28 27 24 22 21 18 17 15 14 14 14 14
4 2 0 4 2 2 3 5 11 14 12 9 9 10 9 6 6 5 5 6 7 9 8 9 9 8 7 7 8 8 9 9 8 8 8 7 7 7 6 5 3 0 2 5 8 9 10 11 12 13 15 19 23 25 27 26 19 16 16 16 17 20 29 36 37 35 32 24 17 18 23 25 25 24 26 26 23 22 20 18 16 15 15 15 16 17
6 3 2 4 2 1 3 8 10 9 11 10 8 7 6 4 3 5 5 6 5 6 8 7 6 6 5 7 8 8 10 9 8 7 7 7 7 7 6 4 2 2 3 4 6 10 10 9 10 12 16 21 25 26 26 22 23 25 25 28 29 29 30 30 28 25 19 12 8 19 23 23 24 24 23 24 23 21 19 17 17 17 17 17 18 18
5 5 3 3 3 0 4 7 9 5 4 5 2 1 3 5 7 7 6 6 8 5 1 4 4 4 7 8 8 9 9 8 7 7 7 7 7 6 4 4 4 4 5 5 5 7 10 11 10 13 18 23 23 22 23 25 29 33 36 39 40 39 34 28 23 20 14 6 11 21 25 26 26 25 25 25 23 21 19 19 18 18 18 19 19 19
4 5 3 3 3 1 3 5 4 5 4 3 4 5 5 7 8 8 7 4 9 9 8 8 8 7 8 8 8 9 8 7 7 7 7 8 7 6 6 6 6 5 6 6 7 8 8 9 11 14 16 16 18 25 29 31 34 35 34 34 32 28 25 23 21 18 12 13 20 25 28 29 28 27 27 26 24 22 21 20 19 20 20 20 19 19
4 4 3 2 3 2 2 3 1 5 4 3 6 6 5 6 7 7 6 4 6 7 6 6 6 7 8 7 6 7 7 7 7 6 5 6 4 5 7 7 6 6 7 7 9 10 7 9 15 14 11 19 24 27 29 30 31 30 28 28 26 22 20 20 18 13 13 22 26 28 30 29 28 28 28 26 24 23 22 21 21 21 21 21 19 18
3 2 3 2 2 2 2 1 1 4 5 3 2 2 2 3 2 4 2 4 2 4 6 7 7 7 8 8 6 6 7 7 7 6 4 4 3 4 6 8 7 5 5 4 6 6 6 6 7 13 24 29 29 29 29 31 33 33 31 30 29 26 22 20 21 23 25 27 28 29 30 28 28 28 27 25 25 23 23 22 22 21 21 21 19 18
1 1 2 2 3 2 2 1 1 3 5 3 2 1 1 2 4 3 4 4 5 4 2 6 8 6 7 9 7 7 7 7 5 4 5 5 5 4 2 7 6 2 1 3 6 10 17 20 23 27 27 24 21 19 21 25 29 33 34 33 32 29 26 26 29 31 29 27 28 29 30 29 29 29 28 27 27 26 25 24 22 20 19 19 18 15
6 5 5 2 1 2 1 1 1 2 3 2 3 3 1 3 3 4 3 5 5 6 5 3 6 6 8 9 7 6 7 5 3 1 4 6 7 6 3 4 6 6 7 12 19 25 31 36 35 30 25 23 23 20 17 17 19 20 20 23 23 23 25 29 32 32 30 28 29 30 30 30 30 29 30 30 29 28 27 25 22 19 18 16 14 10
4 4 4 4 4 4 3 3 2 2 3 2 2 3 3 3 1 3 2 7 5 6 5 5 8 6 7 8 7 6 6 4 5 3 4 9 9 7 4 4 7 7 9 18 27 30 33 35 32 27 26 27 27 25 22 21 22 19 16 18 22 22 25 29 32 31 29 29 31 32 31 31 31 31 32 31 31 29 28 25 21 17 15 12 9 6
2 3 1 2 3 4 6 5 3 2 2 3 5 5 5 4 1 3 5 6 4 7 7 9 11 8 7 7 6 5 4 4 4 4 7 9 7 7 6 4 4 8 15 24 29 29 29 30 30 29 29 30 31 30 27 26 26 25 24 25 26 27 29 29 28 26 27 29 31 31 31 31 32 33 33 31 30 28 26 22 18 14 10 7 4 4
2 2 1 1 2 1 2 3 2 2 2 4 6 7 6 3 2 4 4 2 4 7 8 10 11 9 8 7 7 6 5 6 7 7 8 8 6 6 7 7 6 11 19 25 29 29 28 26 27 28 28 29 31 32 31 29 26 26 26 23 21 23 23 21 22 25 29 31 30 29 29 30 30 31 31 28 27 25 21 17 14 11 7 4 3 7
1 1 1 1 2 1 2 2 1 3 6 4 3 6 5 0 3 3 2 5 7 7 8 10 10 9 8 8 7 7 7 8 9 8 8 8 7 6 7 8 8 11 16 19 21 26 27 23 22 25 26 28 30 30 31 29 25 22 19 16 16 18 18 21 26 30 30 29 27 26 26 25 25 26 25 23 22 20 16 12 9 7 4 2 9 13
5 3 0 0 1 2 1 1 1 4 7 2 4 2 1 2 2 1 3 4 6 6 6 7 7 8 8 8 8 8 8 8 8 8 7 8 7 7 7 7 7 10 14 16 17 22 26 23 21 23 26 28 30 31 30 27 22 18 15 13 14 17 18 20 21 20 19 17 15 15 15 16 16 17 18 18 17 15 13 10 7 3 3 9 14 15
2 2 3 1 2 2 3 3 3 1 7 5 5 4 4 5 3 3 5 5 5 5 6 6 7 8 8 8 7 7 6 6 7 7 7 7 7 7 7 6 7 9 11 13 15 20 25 26 25 24 25 27 30 31 30 24 18 16 16 16 16 16 17 16 14 14 13 11 10 11 12 14 15 16 16 16 14 13 11 9 4 2 8 10 11 13
3 3 4 1 4 3 4 4 3 2 5 8 8 7 7 8 7 6 8 7 5 6 7 7 7 7 8 9 8 6 6 6 6 7 6 7 6 6 6 6 7 10 12 12 13 16 20 24 24 23 22 23 24 24 24 21 18 19 17 14 12 11 11 10 10 12 12 9 10 13 15 17 19 18 16 14 13 12 9 5 1 5 6 7 9 10
4 6 5 2 1 2 3 7 6 4 5 6 8 9 9 9 8 7 7 7 6 7 7 7 7 8 8 9 9 7 7 6 7 7 6 6 5 5 6 5 4 7 11 14 16 18 19 20 21 20 20 19 19 20 21 19 18 16 13 12 10 9 8 7 8 12 13 13 14 16 19 20 18 14 13 12 12 9 5 3 4 5 6 7 7 6
1 3 4 3 1 3 2 5 6 6 8 7 7 7 7 7 8 8 8 8 8 8 8 8 8 8 7 7 7 7 6 6 6 6 5 4 4 4 5 4 4 6 10 14 17 18 18 19 19 21 21 20 18 18 18 16 12 11 13 14 10 8 9 8 7 10 13 14 16 16 16 15 13 12 13 12 9 5 3 2 3 5 9 9 7 6
2 2 2 1 2 3 2 4 7 6 7 8 8 7 6 6 7 8 9 9 9 9 9 9 9 8 7 6 6 6 5 4 3 5 5 4 4 4 4 5 7 8 11 15 17 19 18 18 17 18 18 16 12 9 8 6 5 8 13 14 10 9 11 11 10 11 11 11 11 11 10 11 13 15 14 9 7 7 8 7 8 9 10 8 6 4
4 4 4 3 2 1 1 1 1 0 1 4 5 7 7 6 6 7 8 8 8 8 8 8 8 8 7 5 6 7 5 4 3 4 6 4 4 5 5 7 9 10 12 15 19 21 22 20 18 17 16 14 12 12 12 13 12 10 10 10 9 10 13 13 12 11 10 10 9 9 10 12 14 14 13 11 12 13 11 9 9 8 8 6 4 3
3 4 4 5 4 3 3 3 4 4 2 3 5 6 5 5 5 5 8 9 8 8 8 8 7 7 7 6 2 6 6 2 1 4 5 4 5 6 6 7 9 10 11 14 15 16 17 17 17 19 19 17 17 18 16 15 14 8 6 8 11 14 14 13 14 11 8 9 12 15 17 16 15 16 18 17 16 15 13 12 11 8 7 7 5 4
Wind_Direction
208 233 210 212 238 247 252 245 206 187 167 160 182 199 190 184 180 188 190 170 160 148 152 151 141 146 156 164 167 165 158 153 155 153 154 157 152 153 155 155 157 159 162 155 151 155 156 156 163 167 162 159 161 167 170 170 175 176 178 179 178 185 190 187 186 192 198 200 203 203 206 220 229 239 244 241 251 254 248 249 255 266 273 284 291 294
193 225 225 218 231 242 254 256 244 227 181 173 189 196 185 186 182 182 180 166 166 162 139 139 139 150 160 164 170 168 158 156 160 161 162 161 158 160 160 155 154 153 154 154 154 159 160 159 166 169 166 165 166 168 171 172 175 178 180 178 176 183 187 187 187 192 199 204 207 205 208 222 234 239 237 231 237 234 220 213 224 242 251 279 317 305
197 226 220 221 232 235 250 257 249 247 222 197 195 189 183 186 177 176 178 168 161 148 134 145 144 154 162 162 169 173 163 161 164 164 163 163 163 166 165 159 157 157 156 160 160 160 164 167 169 169 169 172 171 168 171 173 174 177 181 181 179 180 182 185 190 196 204 209 211 209 207 222 235 237 241 234 219 208 213 212 222 229 228 273 313 299
195 223 216 220 232 231 242 249 241 245 245 231 208 186 183 185 176 175 179 164 155 159 157 153 145 153 164 163 168 174 168 160 163 163 162 166 170 169 169 165 162 165 163 166 169 167 172 177 173 170 171 173 172 169 172 175 176 178 181 181 181 182 185 189 194 201 207 210 213 207 202 227 240 228 213 195 150 118 152 153 163 209 236 273 280 316
206 207 217 224 230 231 237 236 236 250 261 274 266 233 186 183 179 162 163 157 152 170 163 145 133 164 172 168 174 178 168 162 164 163 163 169 173 169 167 162 161 168 167 168 174 174 177 180 175 171 172 171 170 172 175 178 179 180 183 183 183 184 189 193 197 200 199 196 196 194 198 219 222 205 188 170 131 101 114 110 89 81 91 156 59 16
219 202 212 226 231 235 240 228 221 235 265 284 271 252 208 200 196 146 152 156 149 187 176 145 138 229 207 177 179 181 170 172 168 160 164 171 173 169 167 164 163 168 169 168 175 177 178 179 175 173 175 173 172 177 179 180 181 182 184 186 186 187 189 192 193 194 188 186 189 192 201 211 193 180 186 181 168 258 292 296 312 18 79 62 24 15
220 206 210 225 228 229 239 239 212 206 233 264 244 248 249 268 288 150 156 165 164 196 183 155 150 224 251 206 189 181 169 177 172 160 165 172 174 174 171 167 163 166 170 170 175 178 178 179 175 176 181 179 177 180 182 182 183 184 184 185 187 188 189 189 189 190 187 186 191 193 198 195 172 159 166 177 248 274 275 270 264 281 278 297 320 330
215 208 208 224 232 224 225 237 221 199 207 254 237 226 223 252 263 181 171 186 182 184 184 168 147 119 211 224 194 169 156 173 184 171 169 172 175 176 174 171 167 169 170 170 177 179 178 180 179 181 187 183 180 181 182 181 183 185 186 186 187 188 189 187 185 187 188 186 187 187 188 177 166 164 155 149 231 249 235 220 228 269 272 290 306 312
217 220 205 212 229 235 220 223 227 203 192 239 248 230 214 231 243 191 173 202 191 171 202 183 141 105 215 220 167 157 165 188 205 193 179 173 175 178 176 171 169 170 170 170 175 179 177 178 180 186 189 184 180 181 181 181 182 184 185 184 186 187 186 184 182 183 183 182 182 182 183 176 171 172 158 148 151 192 191 195 248 281 274 292 303 300
210 228 216 207 210 227 242 234 227 197 178 233 254 272 277 237 241 194 156 161 87 110 240 212 165 143 221 193 159 167 187 200 205 201 189 177 177 179 175 172 171 168 169 172 173 176 179 178 181 189 190 181 180 181 181 181 181 181 181 181 182 184 182 180 181 182 178 179 183 183 183 182 178 177 180 197 229 243 228 243 273 274 268 278 285 295
215 218 223 219 193 199 233 241 230 200 181 218 241 268 284 264 255 261 160 110 77 85 255 246 202 176 192 191 180 183 197 200 194 192 198 188 181 179 173 171 171 166 168 174 173 175 179 179 181 186 186 181 180 182 181 179 178 176 177 178 177 178 179 177 178 180 179 180 183 181 179 181 178 176 185 202 216 232 237 239 242 243 257 270 281 305
239 220 214 224 194 191 219 235 221 197 192 206 209 211 253 295 356 354 359 57 97 245 249 267 275 227 205 208 201 203 203 194 183 186 195 190 181 179 177 171 169 167 169 173 173 175 177 177 178 180 181 180 178 177 176 175 174 174 176 177 174 174 178 179 178 180 181 180 178 178 179 181 183 182 186 192 195 203 208 208 208 223 265 277 278 295
245 236 208 216 210 193 204 225 207 194 214 214 204 182 187 297 14 57 345 1 201 243 235 252 282 252 228 203 197 206 208 193 186 191 190 185 177 176 178 171 165 167 171 173 174 176 174 173 175 176 177 176 173 172 171 171 172 174 176 177 175 176 180 181 181 182 182 180 178 181 184 188 193 193 194 195 198 206 211 212 214 228 254 265 258 277
238 249 219 211 216 190 188 196 182 196 225 219 202 173 152 131 81 146 227 264 260 273 255 250 261 256 274 238 193 198 205 197 191 188 181 182 181 177 179 170 161 168 173 175 174 174 174 174 173 174 175 174 171 171 171 170 172 175 176 177 177 179 181 182 183 183 183 183 183 184 186 189 195 198 197 197 201 203 202 207 212 218 229 246 258 268
214 236 222 213 192 168 196 201 179 185 205 213 198 180 173 153 150 178 167 174 230 260 257 244 239 222 246 256 196 189 198 193 182 179 178 186 186 177 177 169 160 169 174 174 173 173 175 174 172 173 174 174 173 173 173 173 175 176 177 179 179 179 181 183 183 184 183 183 186 187 187 193 198 199 198 198 203 202 201 208 212 214 227 241 242 247
220 222 213 214 171 161 199 225 202 197 211 203 169 171 216 199 167 192 191 181 201 234 242 227 218 201 211 240 163 152 174 175 170 174 175 180 179 168 174 177 168 169 174 174 172 172 175 174 173 174 175 175 175 175 174 175 176 178 179 181 182 182 183 182 183 186 185 182 185 188 189 194 198 199 200 201 208 217 220 213 213 222 235 241 240 244
224 242 198 190 180 175 192 219 216 209 222 188 141 167 223 232 180 160 206 208 206 227 234 216 242 259 209 269 173 131 143 162 170 171 168 170 170 165 173 182 177 169 170 176 175 171 175 175 174 176 176 176 177 177 177 178 179 180 180 181 182 182 183 183 184 187 187 185 186 187 189 194 197 197 198 204 215 223 214 202 215 233 233 233 235 235
201 265 183 167 191 203 188 212 230 218 199 167 154 173 203 257 237 140 227 236 199 219 233 210 233 236 174 245 218 132 140 164 174 160 156 166 168 167 173 180 180 170 166 175 177 171 174 177 177 179 179 180 180 180 180 180 182 182 182 183 183 182 183 184 186 188 188 186 185 185 187 190 194 197 201 212 218 216 207 207 226 239 232 229 229 236
203 247 186 166 188 202 179 201 238 227 192 175 179 175 168 226 238 179 220 218 167 190 276 260 250 227 195 214 175 140 148 164 168 139 136 151 162 166 171 176 174 164 161 172 175 172 176 178 178 179 180 182 183 183 182 181 181 182 182 184 184 185 185 186 188 189 189 188 186 186 189 190 191 196 201 207 210 210 209 216 234 239 234 233 235 246
223 234 225 182 182 179 170 191 225 233 196 176 181 190 176 190 191 175 196 182 152 161 221 292 301 292 257 228 166 156 150 147 145 129 131 149 165 169 165 169 172 163 165 174 177 177 178 179 181 180 180 182 183 183 182 180 179 181 182 183 185 185 185 187 190 191 189 188 185 185 189 191 191 193 197 202 209 212 213 220 230 233 233 236 240 243
227 218 233 194 180 173 172 190 198 202 190 179 194 203 191 196 187 186 215 184 148 144 156 253 313 306 291 284 134 136 129 128 132 132 137 144 154 165 166 166 165 162 169 176 176 178 179 180 184 182 181 181 181 181 180 180 180 180 181 183 184 184 184 187 191 191 188 186 185 186 190 191 191 192 195 200 207 212 216 224 230 232 236 240 241 239
221 195 197 189 183 189 183 181 192 206 203 187 189 190 185 190 177 172 248 238 151 141 167 163 147 279 294 11 93 105 106 114 121 126 141 143 136 150 170 165 153 158 174 178 175 177 178 179 182 182 181 180 179 180 181 181 180 180 181 183 183 183 184 187 190 190 188 187 187 189 189 188 188 188 191 200 208 214 220 228 234 236 239 242 244 244
230 201 193 191 184 192 190 179 186 209 223 208 192 189 191 208 179 153 196 225 190 170 181 142 123 257 285 1 99 103 104 107 108 100 97 122 127 137 163 167 156 166 176 176 177 177 178 182 182 180 179 179 180 183 183 181 180 181 183 183 183 183 184 188 189 188 188 187 187 188 187 189 191 190 195 205 211 216 221 229 238 241 243 244 244 245
229 213 190 199 184 187 200 190 182 195 216 219 205 196 199 225 223 180 164 175 183 189 173 133 127 242 279 269 117 113 109 105 104 95 89 103 116 128 157 168 165 175 181 180 185 187 182 183 182 179 179 180 182 184 183 182 182 182 183 184 184 183 184 187 188 186 185 186 188 188 187 191 195 193 197 206 212 217 222 232 243 246 247 246 243 244
215 203 158 152 168 180 203 216 188 190 201 209 211 203 204 210 207 205 153 124 178 200 161 134 159 230 268 272 110 104 97 97 108 117 116 125 118 111 141 164 174 181 186 188 193 194 186 181 183 183 183 184 185 187 186 185 184 183 185 185 184 183 185 187 186 183 183 185 187 186 188 193 195 192 197 207 213 218 223 231 239 244 244 233 231 237
196 199 164 154 165 174 190 215 200 187 191 198 219 229 227 217 199 191 159 117 196 221 186 140 152 215 248 205 128 122 119 125 140 138 134 142 137 124 134 159 174 177 182 191 198 200 194 189 187 187 187 187 187 188 188 187 187 187 186 185 184 185 185 185 184 182 182 184 184 185 190 195 194 193 199 208 214 220 226 230 233 240 239 203 203 221
166 189 176 156 163 176 187 200 184 167 171 190 204 226 248 257 228 176 156 177 186 192 210 181 156 172 214 196 172 160 150 156 157 134 131 145 149 151 151 154 168 175 180 187 192 199 200 194 191 191 191 190 189 189 190 189 188 188 186 183 183 185 184 182 181 180 181 183 183 186 193 196 196 198 204 211 216 220 225 229 232 240 245 224 218 239
145 176 176 160 168 183 192 216 192 172 181 196 192 205 229 248 253 217 185 199 168 147 223 208 159 160 198 199 185 179 167 166 164 149 152 163 160 162 162 156 163 176 183 185 185 192 198 199 198 193 190 191 192 191 190 189 189 189 186 183 182 182 182 181 179 177 180 183 184 190 195 196 198 202 208 214 217 219 223 228 231 235 241 247 256 269
125 161 179 173 183 197 202 222 214 184 197 221 219 208 208 218 234 234 211 179 146 153 218 209 170 170 190 192 185 184 172 163 164 160 161 164 150 147 159 161 164 175 187 192 187 185 192 197 195 191 192 194 194 192 190 190 191 192 187 183 181 180 179 178 175 176 179 181 185 192 196 197 200 205 209 213 216 219 222 224 225 232 244 255 264 273
119 159 185 165 169 208 217 222 236 229 212 219 238 243 214 207 218 227 230 221 195 194 201 188 185 189 187 183 187 187 168 152 151 146 143 141 130 131 147 161 172 181 190 200 202 193 191 193 193 192 191 192 194 194 191 189 192 193 188 183 183 180 176 175 174 175 178 179 185 193 197 199 202 206 209 211 213 217 219 221 225 234 245 253 260 267
200 224 225 116 98 285 283 264 254 251 246 239 253 265 255 235 234 235 241 241 235 231 202 173 187 214 208 183 177 166 144 134 131 131 135 135 129 129 132 139 159 183 194 205 212 207 198 196 196 193 190 194 197 193 191 194 196 191 183 179 180 176 171 171 172 174 175 175 182 193 196 198 202 206 209 211 211 214 218 221 227 232 240 247 254 259
171 219 334 89 81 305 318 294 256 234 234 253 259 255 248 243 252 264 262 247 235 232 213 175 180 220 220 176 148 135 129 124 121 122 119 108 102 105 102 96 98 334 251 211 210 216 217 208 196 194 194 198 197 192 193 194 177 145 133 143 157 162 165 167 167 168 167 162 173 194 195 194 198 202 205 206 208 213 216 219 222 228 235 244 251 255
148 138 91 102 91 295 287 295 278 235 216 227 238 250 260 274 333 345 325 306 294 252 221 189 181 197 169 134 123 122 117 110 107 111 107 100 100 105 109 117 151 240 263 245 216 211 217 219 207 201 199 200 199 195 190 171 138 133 146 156 161 163 163 161 156 152 143 128 176 210 207 200 200 202 204 207 210 212 215 219 224 231 239 245 250 253
110 103 104 110 104 262 286 298 298 284 228 222 229 26 17 20 20 2 341 354 16 15 45 110 108 105 96 99 109 114 115 118 125 131 127 127 130 131 145 174 193 218 246 261 245 216 213 220 220 210 204 203 195 178 166 155 151 158 165 164 163 162 156 150 139 129 126 147 226 226 217 208 206 208 211 213 214 215 217 221 228 235 241 245 247 251
79 83 76 77 105 96 1 11 323 274 235 252 333 357 28 48 38 357 334 22 59 55 57 69 79 86 82 90 110 118 126 131 125 123 122 123 129 140 165 186 190 202 224 239 250 243 220 209 217 218 208 188 157 145 150 156 157 157 156 152 149 144 138 134 125 119 144 214 234 227 214 208 208 210 213 215 215 214 216 222 230 236 240 244 247 251
70 91 100 81 98 97 38 73 195 259 267 9 8 343 353 41 52 23 351 6 69 81 96 100 104 109 101 105 120 121 124 112 88 79 86 93 121 186 201 197 189 207 228 236 238 240 230 213 214 204 152 119 122 136 148 148 142 135 128 126 126 121 120 126 131 144 198 223 225 217 209 206 207 209 212 213 211 213 218 221 228 234 239 243 245 249
13 41 67 30 46 96 97 165 226 293 307 346 28 357 17 26 40 75 47 301 333 97 136 131 110 98 93 99 102 89 83 76 56 29 10 13 335 267 219 185 170 197 228 218 208 232 280 263 202 134 113 119 133 145 144 137 132 129 127 131 139 142 143 154 173 194 212 222 221 215 208 206 208 210 212 212 210 214 219 220 225 232 237 241 243 248
252 37 62 327 318 77 72 359 323 306 295 290 291 256 131 274 275 103 95 295 323 22 85 125 120 118 110 110 110 86 68 65 58 10 338 348 6 14 128 162 155 140 96 86 74 46 43 59 81 94 106 116 115 112 112 116 128 137 139 142 148 153 162 181 195 204 214 223 222 215 208 208 211 213 214 215 214 216 218 219 222 227 231 237 243 251
181 136 129 162 295 71 75 284 213 239 268 286 323 320 323 294 304 60 46 292 309 352 349 81 117 144 139 124 115 95 78 84 139 229 346 4 9 18 65 128 110 91 82 78 76 76 82 92 100 107 114 109 98 96 101 108 118 124 126 134 148 166 181 192 201 208 217 225 222 214 209 210 213 216 217 217 216 216 217 217 217 224 232 238 243 254
177 106 124 167 171 155 173 227 242 227 237 255 314 322 323 317 18 78 313 271 289 335 348 61 77 97 118 106 95 96 103 139 185 200 39 33 19 12 36 90 112 112 88 81 87 94 102 109 115 120 123 125 131 141 151 151 139 127 132 154 173 193 202 202 206 214 221 224 219 212 210 212 213 216 218 217 215 216 217 216 216 220 225 227 232 254
85 68 83 222 213 172 175 205 234 211 223 299 337 355 6 2 34 168 219 247 308 357 21 60 64 68 84 82 80 86 97 120 126 83 62 56 38 26 32 44 84 93 90 95 100 102 105 114 125 133 139 145 147 152 162 166 157 157 172 185 192 203 211 212 217 223 224 219 213 208 211 214 215 216 217 217 217 216 214 211 209 205 201 203 224 276
130 120 108 25 334 297 234 231 244 257 269 309 344 3 15 13 205 196 218 277 2 20 37 54 56 57 63 65 67 66 58 57 59 57 57 55 46 39 40 40 47 67 87 103 110 112 115 122 130 137 143 147 149 158 169 172 170 176 187 194 200 208 216 223 227 226 218 211 208 208 211 214 215 217 217 214 211 206 198 194 195 194 189 190 271 286
51 90 146 99 75 26 319 312 201 262 273 277 359 4 7 89 203 226 328 5 19 33 45 52 51 50 54 55 51 48 47 42 37 40 43 44 51 60 61 67 74 82 95 106 116 123 128 131 133 137 142 146 152 163 169 169 173 182 187 195 205 208 209 211 214 215 214 210 209 212 215 216 216 214 209 202 194 186 177 173 174 173 158 353 312 290
6 358 118 355 49 131 148 112 147 272 290 292 120 115 124 152 188 298 32 29 21 32 48 53 49 45 50 54 43 33 36 37 31 28 29 33 50 70 71 65 70 93 113 124 131 134 132 133 138 143 146 151 159 165 167 170 179 186 179 169 169 169 170 176 184 190 194 194 195 202 206 204 199 193 186 179 172 163 151 141 139 138 347 326 303 281
280 231 165 200 279 174 136 117 115 312 322 0 77 118 121 103 86 73 77 61 27 32 46 46 43 42 43 45 39 30 27 24 15 14 30 48 60 73 84 77 67 86 110 126 137 139 133 134 140 143 147 158 167 171 174 177 174 163 152 143 141 142 142 142 145 146 146 148 153 161 166 167 165 163 162 160 157 150 137 127 126 300 308 300 277 262
174 146 134 191 303 340 23 26 42 49 0 8 34 62 75 71 60 56 65 58 34 33 42 40 35 32 28 27 25 11 357 5 15 21 44 70 70 68 84 90 90 100 107 115 131 136 131 132 138 141 147 160 168 170 174 173 153 138 135 137 141 145 142 140 139 130 124 134 155 162 163 161 157 154 154 151 147 145 145 148 225 293 289 270 259 258
66 73 86 93 319 327 327 322 337 58 68 29 31 42 45 45 41 42 58 65 48 38 41 42 36 32 32 37 38 27 14 27 52 55 59 76 77 69 77 82 93 116 121 122 130 133 129 128 133 136 140 149 147 139 140 142 136 131 138 147 149 140 129 131 139 135 138 155 166 164 164 163 159 154 152 152 154 160 180 241 286 285 257 241 236 228
2 42 67 67 57 135 161 310 341 60 74 52 48 47 34 33 35 36 46 53 46 36 33 38 38 32 35 55 70 67 55 59 84 93 86 90 101 96 91 87 89 115 124 124 126 130 130 128 131 134 137 140 136 128 129 136 138 141 147 149 145 134 131 141 156 155 156 164 167 166 164 167 173 174 167 161 164 176 194 206 213 212 209 207 200 189
139 94 115 101 36 81 88 344 349 24 35 30 37 36 23 26 36 41 45 42 38 34 28 31 34 24 22 52 78 78 60 44 77 118 125 133 141 138 129 119 111 114 119 121 126 131 129 125 127 129 131 134 134 127 125 129 140 154 150 142 135 140 147 153 159 162 160 162 167 172 168 162 165 166 164 163 162 159 160 165 174 184 189 191 196 199
118 123 140 121 84 98 196 277 283 118 15 352 4 18 23 22 25 44 54 42 32 35 30 25 22 8 359 24 71 88 76 27 28 113 134 159 172 163 157 142 127 125 129 131 136 140 139 137 132 124 121 127 120 100 85 77 77 98 126 133 141 153 155 155 157 160 165 167 169 171 164 158 160 165 170 176 171 162 158 161 168 175 179 180 182 177
106 156 158 135 134 156 157 142 135 130 150 282 320 355 19 16 9 40 58 42 23 23 27 20 8 355 342 341 36 117 126 119 142 136 135 160 180 174 169 153 135 134 141 141 139 137 138 138 131 121 122 128 120 109 101 85 73 86 136 162 170 167 162 163 165 165 166 170 175 176 171 168 173 178 178 179 178 171 161 153 151 153 155 151 139 123
Height
728 748 756 757 756 748 739 734 733 733 736 747 755 761 763 767 769 758 751 743 739 762 772 768 778 782 781 780 775 773 774 779 784 786 788 789 790 791 793 794 795 796 796 794 796 798 800 802 804 806 808 809 811 813 814 816 817 818 820 822 823 824 825 826 827 828 829 830 832 832 833 833 833 834 834 834 834 834 834 834 834 834 835 835 835 835
733 757 759 747 743 736 730 726 725 730 734 740 747 755 757 760 762 752 747 742 735 759 774 765 774 782 777 777 773 770 776 781 782 785 788 788 789 790 791 794 795 795 794 794 796 797 799 802 803 805 806 808 810 811 813 814 816 818 819 820 822 823 824 824 825 826 827 828 829 830 831 832 832 832 832 832 832 833 833 833 833 833 834 835 835 835
751 758 749 735 731 729 728 724 724 730 734 739 741 749 758 753 754 751 744 740 737 757 775 767 774 782 773 771 770 768 773 776 775 778 782 784 788 790 791 792 794 794 795 795 795 797 799 801 802 804 805 807 808 810 812 813 814 816 818 819 821 822 822 823 824 825 826 827 828 829 830 830 831 831 831 831 831 832 832 832 833 833 834 834 835 835
762 753 736 727 726 728 732 726 725 731 734 738 739 747 756 747 752 762 752 742 739 750 766 767 773 780 772 769 769 765 765 768 769 771 774 777 782 785 785 788 791 793 795 796 795 795 797 799 801 802 803 805 806 808 810 811 813 814 816 818 819 821 821 822 823 824 825 826 827 828 828 829 829 830 830 830 831 831 832 832 833 833 834 834 834 835
752 738 724 724 725 728 734 730 728 738 740 737 735 741 747 739 741 752 748 743 744 747 753 764 783 787 776 776 774 763 761 763 765 768 772 774 774 777 780 783 786 788 791 794 795 794 795 797 798 800 802 803 804 806 808 809 811 812 814 816 817 819 820 821 822 823 824 825 826 826 827 828 828 828 828 829 830 830 831 832 832 833 833 834 834 834
740 725 718 726 729 726 732 734 730 737 745 743 734 728 730 731 733 739 741 746 763 769 754 760 798 806 781 777 777 767 764 765 764 767 773 774 772 774 778 781 782 784 786 788 790 791 792 794 796 798 800 801 802 804 806 808 809 811 812 814 816 817 818 819 820 822 823 824 825 825 826 826 826 827 827 828 829 829 830 831 831 832 832 832 832 832
730 718 717 725 729 728 732 734 727 728 746 752 732 716 718 724 730 739 743 751 771 776 753 749 788 809 792 780 774 767 769 769 765 768 771 772 772 772 773 776 779 781 783 785 786 788 789 792 793 796 797 799 801 802 804 806 808 809 811 812 814 816 817 818 819 820 821 822 823 824 825 825 825 826 827 828 828 829 830 830 830 831 831 831 831 831
722 720 722 722 726 731 735 735 724 720 743 749 722 710 719 723 730 739 743 750 756 756 752 746 765 796 801 783 769 767 772 774 770 769 769 768 768 767 768 770 772 776 779 782 784 785 786 789 791 793 795 796 798 800 802 804 806 808 810 811 813 815 816 817 818 819 820 821 822 823 824 824 824 825 826 827 828 829 829 829 830 830 830 830 830 831
715 721 724 721 727 733 730 725 715 714 734 732 710 710 718 720 726 731 739 749 746 754 771 760 757 792 805 781 767 770 775 778 774 768 766 765 764 763 764 765 767 769 772 775 779 781 783 785 788 790 792 794 796 798 800 801 804 806 808 810 811 813 815 816 817 818 818 820 820 821 822 823 823 824 825 826 827 828 828 828 829 829 829 829 829 830
711 711 709 714 725 728 720 711 705 712 724 715 705 712 716 716 720 725 738 748 749 766 781 765 754 783 803 786 774 779 780 777 771 764 762 760 759 759 760 761 763 765 768 770 773 775 778 781 785 788 790 792 794 796 798 800 802 804 806 808 810 811 813 814 816 817 818 818 819 820 821 821 822 822 823 825 826 827 827 828 828 828 828 829 829 829
702 695 695 703 711 711 708 705 701 705 709 706 711 720 723 723 722 727 735 742 762 780 774 758 748 763 792 792 776 773 767 760 760 762 760 756 754 755 756 757 760 763 766 767 769 771 774 778 781 786 788 790 792 794 796 798 800 802 804 806 808 810 812 813 814 815 816 817 818 818 820 820 821 821 822 823 824 825 826 827 827 828 828 828 829 829
703 701 699 694 692 695 702 706 701 697 699 708 720 729 739 743 738 743 746 749 778 791 767 749 743 752 782 788 769 755 744 741 749 754 753 752 752 752 751 753 755 759 762 764 767 769 771 775 778 782 785 787 790 792 793 796 798 800 802 804 806 808 810 811 813 814 815 816 817 817 818 819 820 820 821 821 823 824 825 825 826 827 827 828 828 828
713 707 699 691 686 686 703 716 711 704 705 715 725 736 757 767 767 773 774 770 782 781 756 744 747 757 766 760 750 745 737 734 736 736 739 743 747 748 748 749 751 754 758 759 763 765 767 770 773 777 781 784 786 788 791 793 795 797 800 801 804 806 808 810 811 812 813 815 816 816 817 818 819 819 820 820 821 822 823 824 825 826 827 827 827 828
728 714 697 698 695 683 696 719 728 724 719 724 730 741 762 775 788 798 791 784 785 772 748 739 750 764 758 738 732 733 729 726 724 725 731 735 738 742 742 744 748 750 753 755 758 761 763 766 768 772 776 780 783 785 788 790 792 795 797 799 802 804 806 808 809 811 812 813 814 815 816 817 818 819 819 820 820 821 822 822 823 824 825 826 826 826
742 737 710 704 701 690 693 706 715 718 720 722 717 727 749 759 776 791 788 788 788 773 755 748 757 767 758 736 719 716 716 718 721 723 726 729 731 735 738 741 745 748 750 752 754 757 759 761 765 769 772 776 779 782 785 787 789 792 794 797 799 801 803 805 807 809 810 811 813 814 815 816 817 818 819 819 820 821 821 821 822 823 823 824 825 825
736 735 704 690 688 687 697 695 690 706 724 718 706 724 743 739 746 763 767 765 768 773 768 758 755 747 735 721 707 707 714 716 722 723 724 729 731 734 740 741 743 746 747 749 752 755 756 758 762 765 768 772 775 779 781 783 786 788 791 794 796 798 801 802 805 807 807 808 810 812 813 815 816 817 818 819 820 820 821 821 821 822 823 823 823 824
732 726 693 685 687 683 691 691 683 701 722 717 716 732 730 716 727 752 762 751 755 778 772 753 749 739 731 727 712 710 718 719 722 723 724 729 731 734 740 739 740 743 744 746 748 750 753 755 759 761 764 768 771 774 777 779 782 784 787 791 794 796 798 801 803 804 805 806 807 809 811 813 814 815 816 817 818 819 820 821 821 822 822 822 822 823
719 722 693 685 699 687 676 684 684 683 698 715 728 725 714 714 723 742 764 765 769 785 771 749 752 750 750 746 724 717 726 726 723 722 723 727 729 734 737 736 737 738 740 743 744 746 749 751 754 757 760 763 765 769 772 775 778 781 784 787 790 793 795 798 800 802 803 803 804 807 808 810 812 813 815 816 817 818 819 820 820 821 821 821 821 822
702 724 706 684 696 690 672 688 701 687 681 700 711 703 713 741 747 745 763 773 779 788 775 757 752 749 749 743 728 727 730 728 724 720 723 729 730 733 735 734 735 736 739 742 742 745 746 747 750 753 756 759 761 765 767 771 775 778 782 785 787 790 792 796 798 799 801 801 802 805 806 808 809 811 813 814 815 816 817 819 819 819 819 819 820 820
694 721 721 689 682 686 684 698 718 711 691 690 698 699 709 729 739 741 748 755 768 781 779 769 761 754 744 730 723 726 723 722 723 720 724 728 727 729 731 731 732 734 736 738 739 742 741 743 745 747 751 755 757 761 764 768 772 774 778 782 785 788 790 794 796 797 799 800 801 803 804 806 807 808 811 812 814 815 816 817 818 818 818 818 819 819
694 712 723 701 682 691 703 704 709 713 707 706 714 719 719 718 720 728 735 736 748 768 776 777 778 764 737 719 719 721 717 717 718 719 723 724 724 725 726 727 730 732 733 734 735 737 737 739 742 744 748 751 755 759 762 765 768 771 775 778 781 785 788 791 793 795 797 798 800 801 803 804 805 806 808 810 812 813 814 816 816 816 817 817 817 817
696 706 716 711 701 705 706 692 687 694 698 705 713 717 719 720 724 740 750 738 733 749 760 768 782 768 732 716 717 716 717 716 715 718 721 719 720 723 724 725 728 730 732 732 731 733 735 736 739 742 745 749 752 756 758 761 764 768 771 774 777 781 784 787 790 792 794 796 798 799 801 803 804 804 806 808 810 811 813 814 814 814 815 816 816 816
682 695 708 710 703 699 691 677 677 682 683 690 699 701 706 713 722 743 758 745 734 741 741 748 773 765 729 715 716 714 714 714 714 716 718 718 719 720 723 724 726 728 728 729 729 730 731 733 735 739 742 745 748 751 754 757 760 763 766 770 773 777 780 784 786 788 791 794 796 798 799 801 803 803 805 807 809 810 811 812 812 813 814 814 814 815
677 692 706 709 699 688 681 674 672 674 680 694 698 694 700 708 712 721 731 732 736 744 741 751 776 765 730 714 713 711 711 710 711 712 715 720 719 719 722 723 725 727 726 727 727 727 728 730 733 736 739 742 745 747 750 753 756 759 762 765 769 772 776 779 782 785 789 792 794 796 798 799 800 801 802 805 807 808 809 810 810 811 811 811 812 813
684 694 702 717 722 715 708 703 697 689 690 699 700 695 696 700 703 709 715 724 738 743 739 755 776 762 730 715 712 711 713 714 713 710 713 718 719 720 722 722 724 726 726 727 726 726 728 730 731 734 736 738 741 743 746 749 752 755 758 761 765 769 773 776 779 782 786 789 792 793 795 797 798 798 799 803 805 806 808 808 808 809 809 809 810 811
681 690 694 715 735 738 734 728 718 707 699 698 697 696 696 696 701 709 718 734 746 741 733 747 763 752 729 719 716 714 714 716 716 713 713 715 716 717 720 722 724 725 726 727 726 726 727 728 730 730 732 735 737 739 743 746 749 751 754 757 761 765 769 773 777 780 784 787 789 791 793 794 795 795 797 800 803 805 806 806 807 808 807 807 808 810
673 682 685 698 712 718 719 709 695 694 701 704 700 697 697 697 698 704 720 736 740 737 737 740 744 746 737 726 721 717 713 714 716 715 716 715 714 714 716 720 721 722 723 724 723 725 725 726 728 728 729 732 733 736 739 741 745 748 750 754 758 762 767 771 775 779 782 785 786 788 790 791 792 793 795 799 801 803 804 804 806 806 805 806 807 808
672 684 683 688 692 692 694 689 679 683 695 700 699 698 698 697 698 707 721 724 724 735 746 737 730 739 738 725 719 717 714 713 713 713 715 714 713 713 714 716 719 721 721 721 722 724 724 725 726 726 727 729 731 734 736 739 742 744 747 751 755 760 765 769 774 777 780 782 783 786 788 788 790 792 795 798 799 801 802 802 804 804 804 804 805 806
671 684 679 681 687 683 681 681 678 681 688 691 693 696 696 696 700 708 713 711 714 729 737 729 726 730 726 718 715 711 708 709 708 708 710 710 710 712 713 716 719 720 721 720 720 720 720 721 722 723 725 726 728 731 733 736 739 741 745 749 754 758 761 765 770 773 776 778 780 783 785 786 788 791 794 796 798 799 800 800 801 802 802 802 803 804
665 681 674 674 685 683 678 677 676 681 688 689 690 691 691 693 695 700 702 700 704 714 715 716 723 721 713 709 705 700 699 701 702 705 706 707 708 710 713 716 718 719 720 719 718 717 717 717 717 718 720 722 725 727 730 733 735 738 743 748 753 757 758 761 765 768 771 774 776 779 780 782 785 789 792 794 796 797 798 798 799 799 800 801 801 803
663 679 671 670 687 689 680 677 678 682 688 691 692 689 688 691 693 695 697 696 699 706 705 709 719 717 704 696 694 695 695 697 702 705 705 706 707 708 711 714 715 716 718 718 717 716 715 714 713 714 716 718 720 723 727 730 733 737 743 750 756 758 757 758 761 765 768 770 773 776 778 779 783 787 790 792 794 795 795 796 796 797 798 799 799 800
665 677 672 675 696 698 685 685 686 682 686 693 696 693 692 694 697 696 695 694 697 702 705 711 720 715 699 691 694 697 696 698 703 704 704 706 706 708 712 713 713 714 715 715 716 715 714 713 713 713 713 715 717 721 725 729 734 741 747 753 758 760 760 759 760 764 766 769 776 780 779 780 783 786 788 790 792 792 793 794 794 795 796 797 797 798
664 676 678 684 703 703 689 689 689 687 701 710 701 693 692 693 696 698 696 694 693 695 701 710 712 702 690 690 697 701 700 702 704 702 703 705 705 707 710 710 711 712 711 713 713 713 713 712 711 711 711 712 715 718 723 728 733 737 741 744 749 753 757 759 761 765 768 773 781 784 781 780 783 785 787 788 789 790 791 791 792 793 794 794 795 795
664 673 679 684 700 707 695 689 694 708 725 719 692 682 687 691 696 703 703 699 696 694 695 698 697 693 690 692 698 702 701 700 699 697 697 699 702 706 707 707 709 709 708 709 709 709 709 708 708 709 709 710 714 718 723 726 728 730 732 735 741 745 750 754 759 764 769 775 781 783 782 781 782 784 786 787 788 788 788 789 789 790 791 792 793 793
668 675 682 684 696 706 699 701 722 736 725 700 679 674 679 684 688 695 699 697 695 695 695 695 695 693 692 694 696 698 697 695 694 695 694 695 698 702 704 705 706 706 707 707 705 704 705 705 706 707 708 711 715 717 720 722 723 727 732 736 743 748 751 755 759 763 770 775 777 778 780 780 781 783 784 785 786 786 786 786 787 788 789 790 790 790
670 678 683 688 698 706 709 721 737 731 703 684 681 677 676 682 688 697 706 703 694 693 696 697 696 692 692 695 695 695 694 692 693 695 693 692 694 696 699 702 702 703 704 703 702 701 701 701 703 705 709 714 717 719 721 723 725 730 735 739 745 751 756 760 762 766 770 773 773 775 777 778 780 781 782 783 783 783 783 784 784 786 787 787 788 788
667 678 686 694 702 708 717 724 721 714 704 697 691 683 680 686 690 699 713 709 693 688 691 692 694 693 692 696 696 693 692 695 702 702 693 691 693 692 693 695 696 698 699 698 698 699 699 700 703 707 712 715 716 718 719 722 725 729 734 738 743 749 755 758 760 762 765 768 770 772 774 776 778 779 780 780 780 780 780 781 782 784 784 785 785 785
665 678 690 703 708 708 718 726 725 729 727 709 693 682 676 678 680 686 704 711 697 688 688 688 691 692 691 695 696 693 694 705 716 711 697 693 693 690 691 692 692 694 695 696 698 699 701 705 709 715 719 721 724 728 729 731 732 731 732 735 740 747 751 753 756 757 759 763 767 769 771 773 775 776 777 777 777 777 777 778 780 781 781 782 782 783
669 679 687 702 712 712 720 732 736 737 728 706 691 682 674 675 675 682 709 721 704 690 688 686 687 689 690 692 693 693 703 719 723 712 699 694 693 691 692 693 692 693 695 696 698 701 704 707 711 716 721 725 732 737 741 744 745 743 743 744 749 753 752 750 752 754 756 760 764 766 768 770 772 773 773 773 773 773 774 775 777 778 778 779 780 781
680 689 694 706 715 714 720 730 728 722 711 696 687 682 676 672 675 700 734 733 703 688 687 684 685 689 689 690 692 696 707 717 717 706 696 694 694 693 693 694 694 694 695 698 701 703 704 707 710 715 719 723 727 731 737 742 743 745 748 749 751 754 751 749 750 751 754 758 761 763 765 766 768 768 768 769 770 771 772 773 774 776 776 777 778 779
696 702 707 713 715 713 718 726 722 712 702 692 686 682 676 676 691 721 738 720 695 689 688 683 686 690 689 690 696 700 703 703 701 698 693 693 696 696 695 695 695 694 696 701 703 703 705 707 709 712 716 720 723 727 734 739 739 738 741 743 745 748 748 749 750 752 755 758 758 760 761 762 764 764 764 766 767 768 770 771 772 773 774 775 777 777
702 707 711 714 720 722 720 721 722 716 701 691 689 683 679 694 716 724 712 697 691 693 689 686 690 692 692 694 697 700 699 694 693 694 694 695 697 697 696 696 696 698 700 702 702 702 705 708 709 712 716 719 723 726 731 736 737 736 738 741 743 745 747 748 751 753 755 756 756 757 758 759 760 761 762 763 764 766 768 769 770 771 772 773 775 775
702 708 712 713 720 730 733 732 738 733 707 688 691 694 695 706 714 706 696 695 695 692 691 693 693 693 696 698 698 698 698 695 695 695 695 697 697 697 698 698 699 702 703 704 704 704 705 709 712 714 717 719 722 725 728 732 734 735 738 740 740 743 745 746 748 751 753 752 753 754 756 757 758 759 760 761 762 764 766 768 769 771 771 772 774 775
708 712 718 718 717 728 741 741 738 731 708 688 692 703 703 699 696 694 698 702 698 693 693 695 695 694 696 698 699 699 698 697 698 697 697 699 699 699 701 701 701 703 703 704 705 705 705 709 713 715 717 718 719 723 728 730 732 734 736 737 738 740 743 743 745 748 749 750 751 752 754 755 756 758 759 760 762 764 765 767 768 769 770 771 773 773
714 710 714 719 715 715 723 725 719 716 706 692 690 696 695 692 690 692 697 702 701 696 692 693 696 695 693 695 699 699 698 698 698 698 699 701 701 701 702 703 703 704 704 705 706 705 705 708 711 715 717 718 719 723 727 729 731 733 734 736 737 739 740 742 744 745 746 748 750 751 752 754 755 757 758 759 761 762 764 765 766 767 768 768 769 770
701 697 703 715 716 711 711 711 709 710 707 697 692 693 692 692 692 692 695 700 701 696 693 695 697 695 693 696 698 700 700 699 699 700 701 702 703 704 704 705 704 705 705 706 708 708 708 709 712 715 717 719 721 723 726 729 731 731 733 735 737 738 738 740 741 743 745 748 749 750 751 752 754 756 757 758 759 760 761 763 764 764 764 765 766 768
696 696 704 716 725 731 733 723 711 710 709 701 697 697 695 694 694 694 697 700 699 697 697 697 697 697 697 699 701 703 703 701 702 704 705 705 706 706 705 706 706 705 705 706 708 710 710 711 714 716 718 721 723 723 725 727 728 728 730 733 734 736 737 739 741 742 744 747 749 750 750 751 753 754 755 757 758 759 760 760 760 761 762 764 766 767
700 700 709 718 723 731 736 725 710 707 707 702 701 703 701 700 699 696 697 698 698 698 699 697 697 700 701 702 704 705 705 704 705 707 707 707 708 707 706 707 706 705 706 707 708 709 710 710 712 714 716 720 722 723 724 725 726 727 729 731 733 734 737 740 743 743 744 745 747 748 749 750 751 752 754 755 756 757 757 757 758 760 762 764 765 765
697 705 715 720 721 724 726 721 713 713 712 707 705 706 704 702 702 701 701 701 701 701 701 700 700 701 701 703 704 705 707 708 706 706 709 709 709 708 707 707 707 707 707 707 708 709 710 711 712 714 717 720 721 723 724 725 726 728 729 730 732 734 737 740 741 742 743 744 745 746 747 749 750 751 752 753 754 755 756 757 759 760 762 763 764 764
699 712 717 718 725 729 727 721 718 721 723 718 713 709 706 704 704 705 706 705 705 706 706 705 704 703 702 703 703 704 708 708 706 706 709 709 708 708 707 706 707 707 708 708 708 709 709 711 713 715 718 720 721 722 724 725 727 729 731 732 734 735 737 738 739 740 741 742 743 745 746 747 749 750 751 752 753 754 756 758 759 760 761 762 763 763
701 709 710 713 721 723 719 715 715 719 723 721 714 711 708 705 705 708 709 708 708 707 706 708 709 708 706 704 703 704 706 706 705 706 708 708 708 708 707 707 707 707 708 709 710 710 711 712 714 716 719 721 721 721 723 725 728 733 736 736 736 736 736 737 738 739 740 740 741 743 744 746 748 749 750 751 752 753 755 756 758 759 760 761 762 762